map of DNK home
DNK - Airport
Location
City:  Dnepropetrovsk, Dnipropetrovsk, Ukraine
Name:Dnepropetrovsk International Airport
ICAO:UKDD
IATA:DNK

Details
Type:Airport (Aerodrome, Airfield)
Use:International (customs port of entry)
Latitude:4821'26"N (48.357222)
Longitude:3506'02"E (35.100556)
Datum:WGS 1984
Elevation:481 ft (147 m)
Variation:7.83E (WMM2015 magnetic declination)
0.11 annual change
Runways:1
Longest:9320 × 144 ft (2841 × 44 m), paved

Time
Time Zone:UTC+2 (DST+3)
Local Time:

Weather
METAR:UKDD 221500Z 05007MPS 9999 OVC010 05/03 Q1016 R08/090070 NOSIG
TAF:UKDD 221106Z 2212/2312 05006MPS 6000 BKN006 SCT015CB
TEMPO 2212/2306 02007G12MPS 1100 BR BKN003
BECMG 2306/2308 08006G11MPS TX06/2212Z TN01/2301Z

Related Locations
Nearby:
Farthest:CHT: 10902 mi / 17545 km
Waitangi [Tuuta], CIT, NZ

Find:

   beyond  
but within

Other Information
Maps:
NOTAMs:
Links:
Sources:

  
flag of Ukraine
flag of Dnipropetrovsk
  

Sectional Chart

Flight Planning
at skyvector.com

Satellite Image

Google Maps Satellite view

 

Copyright © 2004-2017 Karl L. Swartz. All rights reserved.
The Great Circle Mapper name and logo are trademarks of the Great Circle Mapper.
All other trademarks mentioned herein belong to their respective owners.
Please see credits for attibutions and further copyright information.

  Follow gcmap on Facebook Follow gcmap on Twitter Follow gcmap on Google+ GCmap on LinkedIn

hCard Microformat

Geo Microformat